TimeMDT,TemperatureF,Dew PointF,Humidity,Sea Level PressureIn,VisibilityMPH,Wind Direction,Wind SpeedMPH,Gust SpeedMPH,PrecipitationIn,Events,Conditions,WindDirDegrees,DateUTC
12:53 AM,69.1,55.0,61,29.86,10.0,Calm,Calm,-,N/A,,Clear,0,2013-08-25 06:53:00
1:53 AM,66.0,55.0,68,29.87,10.0,SSW,3.5,-,N/A,,Clear,210,2013-08-25 07:53:00
2:53 AM,64.9,54.0,68,29.88,10.0,Calm,Calm,-,N/A,,Clear,0,2013-08-25 08:53:00
3:53 AM,64.0,54.0,70,29.88,10.0,WNW,4.6,-,N/A,,Clear,300,2013-08-25 09:53:00
4:53 AM,60.1,53.1,78,29.88,10.0,NW,4.6,-,N/A,,Clear,310,2013-08-25 10:53:00
5:53 AM,57.0,51.1,81,29.91,10.0,Calm,Calm,-,N/A,,Clear,0,2013-08-25 11:53:00
6:53 AM,61.0,54.0,78,29.94,10.0,South,3.5,-,N/A,,Clear,190,2013-08-25 12:53:00
7:53 AM,71.1,54.0,55,29.94,10.0,Calm,Calm,-,N/A,,Clear,0,2013-08-25 13:53:00
8:53 AM,78.1,53.1,42,29.94,10.0,SSW,3.5,-,N/A,,Clear,200,2013-08-25 14:53:00
9:53 AM,84.9,53.1,33,29.93,10.0,West,3.5,-,N/A,,Clear,270,2013-08-25 15:53:00
10:53 AM,91.0,48.0,23,29.93,10.0,Calm,Calm,-,N/A,,Clear,0,2013-08-25 16:53:00
11:53 AM,93.0,46.9,20,29.92,10.0,NNW,4.6,-,N/A,,Clear,330,2013-08-25 17:53:00
12:53 PM,96.1,48.0,19,29.89,10.0,Variable,3.5,-,N/A,,Clear,0,2013-08-25 18:53:00
1:53 PM,95.0,48.0,20,29.89,10.0,Variable,4.6,-,N/A,,Clear,0,2013-08-25 19:53:00
2:53 PM,97.0,48.0,19,29.87,10.0,SE,8.1,-,N/A,,Mostly Cloudy,130,2013-08-25 20:53:00
3:53 PM,93.9,48.0,21,29.87,10.0,Variable,4.6,-,N/A,,Mostly Cloudy,0,2013-08-25 21:53:00
4:53 PM,95.0,48.0,20,29.87,10.0,SE,5.8,-,N/A,,Clear,140,2013-08-25 22:53:00
5:53 PM,93.0,48.0,21,29.88,10.0,SE,5.8,-,N/A,,Clear,140,2013-08-25 23:53:00
6:53 PM,90.0,51.1,26,29.87,10.0,East,3.5,-,N/A,,Clear,100,2013-08-26 00:53:00
7:53 PM,84.0,52.0,33,29.87,10.0,Calm,Calm,-,N/A,,Clear,0,2013-08-26 01:53:00
8:53 PM,80.1,53.1,39,29.88,10.0,Calm,Calm,-,N/A,,Clear,0,2013-08-26 02:53:00
9:53 PM,75.0,55.0,50,29.88,10.0,WNW,3.5,-,N/A,,Clear,290,2013-08-26 03:53:00
10:53 PM,70.0,55.9,61,29.89,10.0,WSW,9.2,-,N/A,,Scattered Clouds,250,2013-08-26 04:53:00
11:53 PM,73.9,52.0,46,29.87,10.0,West,11.5,-,N/A,,Clear,280,2013-08-26 05:53:00